Spencer Municipal Airport
Tuesday 10:53 PM
Temperature63° (78°/47°)
Dew Point50°
Relative Humidity62
%
Visibility10
mi
Pressure1019.0
mb
Wind DirectionSSE
150°
Wind Speed7
mph
Precipitation Today0.00"

Last 30 Observations

Time PresWx Temp DP Feels RH% Vsby Pressure Ceiling Direction Speed 1h Precip
10:53 PM 63° 50° 63
%
10
mi
1019.0
mb
SSE
150°
7
mph
0.00"
9:53 PM 66° 50° 56
%
10
mi
1019.0
mb
6,000
ft
SE
140°
8
mph
0.00"
8:53 PM 65° 48° 54
%
10
mi
1018.6
mb
SE
130°
7
mph
0.00"
7:53 PM 72° 49° 71°44
%
10
mi
1018.3
mb
ESE
120°
9
mph
0.00"
6:53 PM 73° 49° 72°43
%
10
mi
1018.6
mb
ESE
120°
10
mph
0.00"
5:53 PM 77° 49° 76°37
%
10
mi
1019.0
mb
6,000
ft
ESE
110°
8
mph
0.00"
4:53 PM 76° 49° 75°39
%
10
mi
1019.3
mb
E
100°
10
mph
0.00"
3:53 PM 75° 48° 74°38
%
10
mi
1020.0
mb
6,500
ft
E
90°
6
mph
0.00"
2:53 PM 75° 48° 74°38
%
10
mi
1020.7
mb
6,500
ft
Calm 0.00"
1:53 PM 74° 49° 73°41
%
10
mi
1021.0
mb
5,500
ft
0.00"
12:53 PM 74° 51° 73°45
%
10
mi
1021.3
mb
5,000
ft
W
260°
7
mph
0.00"
11:53 AM 73° 51° 72°46
%
10
mi
1021.3
mb
4,200
ft
S
190°
5
mph
0.00"
10:53 AM 71° 51° 70°49
%
10
mi
1022.0
mb
SSE
150°
7
mph
0.00"
9:53 AM 68° 49° 50
%
10
mi
1022.0
mb
SSE
150°
5
mph
0.00"
8:53 AM 64° 50° 60
%
10
mi
1022.4
mb
SSE
150°
7
mph
0.00"
7:53 AM 58° 51° 78
%
10
mi
1022.0
mb
ESE
110°
3
mph
0.00"
6:53 AM 50° 47° 89
%
10
mi
1021.7
mb
Calm 0.00"
5:53 AM 50° 46° 86
%
10
mi
1021.3
mb
Calm 0.00"
4:53 AM 52° 48° 86
%
10
mi
1021.3
mb
NE
50°
3
mph
0.00"
3:53 AM 53° 50° 89
%
10
mi
1021.3
mb
Calm 0.00"
2:53 AM 57° 52° 83
%
10
mi
1021.3
mb
8,000
ft
E
80°
6
mph
0.00"
1:53 AM 59° 52° 78
%
10
mi
1022.0
mb
E
100°
5
mph
0.00"
12:53 AM 61° 54° 78
%
10
mi
1022.4
mb
8,000
ft
ESE
120°
6
mph
0.00"
11:53 PM 61° 54° 78
%
10
mi
1022.4
mb
4,900
ft
NE
50°
6
mph
0.00"
10:53 PM 57° 52° 83
%
10
mi
1021.7
mb
8,000
ft
Calm 0.00"
9:53 PM 55° 50° 83
%
10
mi
1020.7
mb
W
270°
3
mph
0.00"
8:53 PM 66° 54° 65
%
10
mi
1020.3
mb
NE
50°
3
mph
0.00"
7:53 PM 71° 53° 70°53
%
10
mi
1020.3
mb
8,000
ft
ENE
70°
5
mph
0.00"
6:53 PM 75° 48° 74°38
%
10
mi
1020.3
mb
NE
50°
10
mph
0.00"
5:53 PM 76° 49° 75°39
%
10
mi
1020.3
mb
NNW
340°
6
mph
0.00"